Back to catalog

CHIMERA-1

LostScienceHEO
NORAD 63100·PAYLOAD·🇺🇸 United States

Launched Feb 27, 2025 from Cape Canaveral Space Force Station

Loading…

Next Passes (next 24 hours)

TLE

StaleSource: Space-Track

Epoch: Feb 27, 2025, 00:53 UTC

1 63100U 25038B   25058.03746186 -.00007054  00000-0  00000+0 0  9999
2 63100  28.5200 357.2438 9653600 216.4100   0.0142  0.10463308    06

Track CHIMERA-1 in real time with AllMySat

Download on the App Store